owner,sensor,date,latitude,longitude,vertical_datum,wind_speed,wind_to_direction,wind_speed_of_gust,qcFlag 
ADCP,ioos:station:wmo:42887:1,2013-12-01T00:00:00Z,28.1910,-88.4960,48.2,5.2,40.0,99.0,'11111222,11111222,11144222' 
ADCP,ioos:station:wmo:42887:1,2013-12-01T00:20:00Z,28.1910,-88.4960,48.2,4.1,48.0,99.0,'11111222,11111222,11144222' 
ADCP,ioos:station:wmo:42887:1,2013-12-01T00:40:00Z,28.1910,-88.4960,48.2,3.4,43.0,99.0,'11111222,11111222,11144222' 
ADCP,ioos:station:wmo:42887:1,2013-12-01T01:00:00Z,28.1910,-88.4960,48.2,5.6,45.0,99.0,'11111222,11111222,11144222' 
ADCP,ioos:station:wmo:42887:1,2013-12-01T01:20:00Z,28.1910,-88.4960,48.2,2.2,56.0,99.0,'11111222,11111222,11144222' 
ADCP,ioos:station:wmo:42887:1,2013-12-01T01:40:00Z,28.1910,-88.4960,48.2,3.5,47.0,99.0,'11111222,11111222,11144222' 
ADCP,ioos:station:wmo:42887:1,2013-12-01T02:00:00Z,28.1910,-88.4960,48.2,3.6,48.0,99.0,'11111222,11111222,11144222' 
ADCP,ioos:station:wmo:42887:1,2013-12-01T02:20:00Z,28.1910,-88.4960,48.2,4.8,86.0,99.0,'11111222,11111222,11144222' 
ADCP,ioos:station:wmo:42887:1,2013-12-01T02:40:00Z,28.1910,-88.4960,48.2,5.7,85.0,99.0,'11111222,11111222,11144222' 
ADCP,ioos:station:wmo:42887:1,2013-12-01T03:00:00Z,28.1910,-88.4960,48.2,4.5,79.0,99.0,'11111222,11111222,11144222' 
ADCP,ioos:station:wmo:42887:1,2013-12-01T03:20:00Z,28.1910,-88.4960,48.2,1.3,86.0,99.0,'11111222,11111222,11144222' 
ADCP,ioos:station:wmo:42887:1,2013-12-01T03:40:00Z,28.1910,-88.4960,48.2,3.1,79.0,99.0,'11111222,11111222,11144222' 
ADCP,ioos:station:wmo:42887:1,2013-12-01T04:00:00Z,28.1910,-88.4960,48.2,2.7,94.0,99.0,'11111222,11111222,11144222' 
ADCP,ioos:station:wmo:42887:1,2013-12-01T04:20:00Z,28.1910,-88.4960,48.2,1.4,87.0,99.0,'11111222,11111222,11144222' 
ADCP,ioos:station:wmo:42887:1,2013-12-01T04:40:00Z,28.1910,-88.4960,48.2,0.2,89.0,99.0,'11111222,11111222,11144222' 
ADCP,ioos:station:wmo:42887:1,2013-12-01T05:00:00Z,28.1910,-88.4960,48.2,2.3,82.0,99.0,'11111222,11111222,11144222' 
ADCP,ioos:station:wmo:42887:1,2013-12-01T05:20:00Z,28.1910,-88.4960,48.2,1.7,82.0,99.0,'11111222,11111222,11144222' 
ADCP,ioos:station:wmo:42887:1,2013-12-01T05:40:00Z,28.1910,-88.4960,48.2,2.1,83.0,99.0,'11111222,11111222,11144222' 
ADCP,ioos:station:wmo:42887:1,2013-12-01T06:00:00Z,28.1910,-88.4960,48.2,2.5,94.0,99.0,'11111222,11111222,11144222' 
ADCP,ioos:station:wmo:42887:1,2013-12-01T06:20:00Z,28.1910,-88.4960,48.2,0.2,101.0,99.0,'11111222,11111222,11144222' 
ADCP,ioos:station:wmo:42887:1,2013-12-01T06:40:00Z,28.1910,-88.4960,48.2,1.2,118.0,99.0,'11111222,11111222,11144222' 
ADCP,ioos:station:wmo:42887:1,2013-12-01T07:00:00Z,28.1910,-88.4960,48.2,1.8,117.0,99.0,'11111222,11111222,11144222' 
ADCP,ioos:station:wmo:42887:1,2013-12-01T07:20:00Z,28.1910,-88.4960,48.2,1.6,134.0,99.0,'11111222,11111222,11144222' 
ADCP,ioos:station:wmo:42887:1,2013-12-01T07:40:00Z,28.1910,-88.4960,48.2,1.0,113.0,99.0,'11111222,11111222,11144222' 
ADCP,ioos:station:wmo:42887:1,2013-12-01T08:00:00Z,28.1910,-88.4960,48.2,3.0,133.0,99.0,'11111222,11111222,11144222' 
ADCP,ioos:station:wmo:42887:1,2013-12-01T08:20:00Z,28.1910,-88.4960,48.2,0.3,132.0,99.0,'11111222,11111222,11144222' 
ADCP,ioos:station:wmo:42887:1,2013-12-01T08:40:00Z,28.1910,-88.4960,48.2,0.2,131.0,99.0,'11111222,11111222,11144222' 
ADCP,ioos:station:wmo:42887:1,2013-12-01T09:00:00Z,28.1910,-88.4960,48.2,0.6,134.0,99.0,'11111222,11111222,11144222' 
ADCP,ioos:station:wmo:42887:1,2013-12-01T09:20:00Z,28.1910,-88.4960,48.2,0.6,131.0,99.0,'11111222,11111222,11144222' 
ADCP,ioos:station:wmo:42887:1,2013-12-01T09:40:00Z,28.1910,-88.4960,48.2,1.4,111.0,99.0,'11111222,11111222,11144222' 
ADCP,ioos:station:wmo:42887:1,2013-12-01T10:00:00Z,28.1910,-88.4960,48.2,1.1,89.0,99.0,'11111222,11111222,11144222' 
ADCP,ioos:station:wmo:42887:1,2013-12-01T10:20:00Z,28.1910,-88.4960,48.2,0.2,70.0,99.0,'11111222,11111222,11144222' 
ADCP,ioos:station:wmo:42887:1,2013-12-01T10:40:00Z,28.1910,-88.4960,48.2,0.6,71.0,99.0,'11111222,11111222,11144222' 
ADCP,ioos:station:wmo:42887:1,2013-12-01T11:00:00Z,28.1910,-88.4960,48.2,0.1,169.0,99.0,'11111222,11111222,11144222' 
ADCP,ioos:station:wmo:42887:1,2013-12-01T11:20:00Z,28.1910,-88.4960,48.2,1.6,66.0,99.0,'11111222,11111222,11144222' 
ADCP,ioos:station:wmo:42887:1,2013-12-01T11:40:00Z,28.1910,-88.4960,48.2,2.5,45.0,99.0,'11111222,11111222,11144222' 
ADCP,ioos:station:wmo:42887:1,2013-12-01T12:00:00Z,28.1910,-88.4960,48.2,2.2,32.0,99.0,'11111222,11111222,11144222' 
ADCP,ioos:station:wmo:42887:1,2013-12-01T12:20:00Z,28.1910,-88.4960,48.2,2.6,16.0,99.0,'11111222,11111222,11144222' 
ADCP,ioos:station:wmo:42887:1,2013-12-01T12:40:00Z,28.1910,-88.4960,48.2,2.4,19.0,99.0,'11111222,11111222,11144222' 
ADCP,ioos:station:wmo:42887:1,2013-12-01T13:00:00Z,28.1910,-88.4960,48.2,2.5,30.0,99.0,'11111222,11111222,11144222' 
ADCP,ioos:station:wmo:42887:1,2013-12-01T13:20:00Z,28.1910,-88.4960,48.2,1.8,23.0,99.0,'11111222,11111222,11144222' 
ADCP,ioos:station:wmo:42887:1,2013-12-01T13:40:00Z,28.1910,-88.4960,48.2,2.1,16.0,99.0,'11111222,11111222,11144222' 
ADCP,ioos:station:wmo:42887:1,2013-12-01T14:00:00Z,28.1910,-88.4960,48.2,1.4,359.0,99.0,'11111222,11111222,11144222' 
ADCP,ioos:station:wmo:42887:1,2013-12-01T14:20:00Z,28.1910,-88.4960,48.2,2.5,354.0,99.0,'11111222,11111222,11144222' 
ADCP,ioos:station:wmo:42887:1,2013-12-01T14:40:00Z,28.1910,-88.4960,48.2,3.3,341.0,99.0,'11111222,11111222,11144222' 
ADCP,ioos:station:wmo:42887:1,2013-12-01T15:00:00Z,28.1910,-88.4960,48.2,5.2,6.0,99.0,'11111222,11111222,11144222' 
ADCP,ioos:station:wmo:42887:1,2013-12-01T15:20:00Z,28.1910,-88.4960,48.2,4.0,358.0,99.0,'11111222,11111222,11144222' 
ADCP,ioos:station:wmo:42887:1,2013-12-01T15:40:00Z,28.1910,-88.4960,48.2,2.0,357.0,99.0,'11111222,11111222,11144222' 
ADCP,ioos:station:wmo:42887:1,2013-12-01T16:00:00Z,28.1910,-88.4960,48.2,4.8,27.0,99.0,'11111222,11111222,11144222' 
ADCP,ioos:station:wmo:42887:1,2013-12-01T16:20:00Z,28.1910,-88.4960,48.2,4.1,34.0,99.0,'11111222,11111222,11144222' 
ADCP,ioos:station:wmo:42887:1,2013-12-01T16:40:00Z,28.1910,-88.4960,48.2,4.5,24.0,99.0,'11111222,11111222,11144222' 
ADCP,ioos:station:wmo:42887:1,2013-12-01T17:00:00Z,28.1910,-88.4960,48.2,4.6,25.0,99.0,'11111222,11111222,11144222' 
ADCP,ioos:station:wmo:42887:1,2013-12-01T17:20:00Z,28.1910,-88.4960,48.2,4.5,32.0,99.0,'11111222,11111222,11144222' 
ADCP,ioos:station:wmo:42887:1,2013-12-01T17:40:00Z,28.1910,-88.4960,48.2,4.2,30.0,99.0,'11111222,11111222,11144222' 
ADCP,ioos:station:wmo:42887:1,2013-12-01T18:00:00Z,28.1910,-88.4960,48.2,4.7,32.0,99.0,'11111222,11111222,11144222' 
ADCP,ioos:station:wmo:42887:1,2013-12-01T18:20:00Z,28.1910,-88.4960,48.2,3.6,31.0,99.0,'11111222,11111222,11144222' 
ADCP,ioos:station:wmo:42887:1,2013-12-01T18:40:00Z,28.1910,-88.4960,48.2,4.8,29.0,99.0,'11111222,11111222,11144222' 
ADCP,ioos:station:wmo:42887:1,2013-12-01T19:00:00Z,28.1910,-88.4960,48.2,3.8,32.0,99.0,'11111222,11111222,11144222' 
ADCP,ioos:station:wmo:42887:1,2013-12-01T19:20:00Z,28.1910,-88.4960,48.2,4.2,40.0,99.0,'11111222,11111222,11144222' 
ADCP,ioos:station:wmo:42887:1,2013-12-01T19:40:00Z,28.1910,-88.4960,48.2,2.5,35.0,99.0,'11111222,11111222,11144222' 
ADCP,ioos:station:wmo:42887:1,2013-12-01T20:00:00Z,28.1910,-88.4960,48.2,2.8,34.0,99.0,'11111222,11111222,11144222' 
ADCP,ioos:station:wmo:42887:1,2013-12-01T20:20:00Z,28.1910,-88.4960,48.2,3.2,27.0,99.0,'11111222,11111222,11144222' 
ADCP,ioos:station:wmo:42887:1,2013-12-01T20:40:00Z,28.1910,-88.4960,48.2,3.3,27.0,99.0,'11111222,11111222,11144222' 
ADCP,ioos:station:wmo:42887:1,2013-12-01T21:00:00Z,28.1910,-88.4960,48.2,3.1,30.0,99.0,'11111222,11111222,11144222' 
ADCP,ioos:station:wmo:42887:1,2013-12-01T21:20:00Z,28.1910,-88.4960,48.2,3.3,30.0,99.0,'11111222,11111222,11144222' 
ADCP,ioos:station:wmo:42887:1,2013-12-01T21:40:00Z,28.1910,-88.4960,48.2,3.5,26.0,99.0,'11111222,11111222,11144222' 
ADCP,ioos:station:wmo:42887:1,2013-12-01T22:00:00Z,28.1910,-88.4960,48.2,3.8,28.0,99.0,'11111222,11111222,11144222' 
ADCP,ioos:station:wmo:42887:1,2013-12-01T22:20:00Z,28.1910,-88.4960,48.2,2.9,20.0,99.0,'11111222,11111222,11144222' 
ADCP,ioos:station:wmo:42887:1,2013-12-01T22:40:00Z,28.1910,-88.4960,48.2,2.2,14.0,99.0,'11111222,11111222,11144222' 
ADCP,ioos:station:wmo:42887:1,2013-12-01T23:00:00Z,28.1910,-88.4960,48.2,2.5,29.0,99.0,'11111222,11111222,11144222' 
ADCP,ioos:station:wmo:42887:1,2013-12-01T23:20:00Z,28.1910,-88.4960,48.2,2.2,38.0,99.0,'11111222,11111222,11144222' 
ADCP,ioos:station:wmo:42887:1,2013-12-01T23:40:00Z,28.1910,-88.4960,48.2,1.9,58.0,99.0,'11111222,11111222,11144222' 
ADCP,ioos:station:wmo:42887:1,2013-12-02T00:00:00Z,28.1910,-88.4960,48.2,1.6,56.0,99.0,'11111222,11111222,11144222' 
ADCP,ioos:station:wmo:42887:1,2013-12-02T00:20:00Z,28.1910,-88.4960,48.2,0.2,52.0,99.0,'11111222,11111222,11144222' 
ADCP,ioos:station:wmo:42887:1,2013-12-02T00:40:00Z,28.1910,-88.4960,48.2,0.9,74.0,99.0,'11111222,11111222,11144222' 
ADCP,ioos:station:wmo:42887:1,2013-12-02T01:00:00Z,28.1910,-88.4960,48.2,2.6,85.0,99.0,'11111222,11111222,11144222' 
ADCP,ioos:station:wmo:42887:1,2013-12-02T01:20:00Z,28.1910,-88.4960,48.2,1.9,109.0,99.0,'11111222,11111222,11144222' 
ADCP,ioos:station:wmo:42887:1,2013-12-02T01:40:00Z,28.1910,-88.4960,48.2,1.2,130.0,99.0,'11111222,11111222,11144222' 
ADCP,ioos:station:wmo:42887:1,2013-12-02T02:00:00Z,28.1910,-88.4960,48.2,1.0,99.0,99.0,'11111222,11111222,11144222' 
ADCP,ioos:station:wmo:42887:1,2013-12-02T02:20:00Z,28.1910,-88.4960,48.2,2.2,92.0,99.0,'11111222,11111222,11144222' 
ADCP,ioos:station:wmo:42887:1,2013-12-02T02:40:00Z,28.1910,-88.4960,48.2,1.0,97.0,99.0,'11111222,11111222,11144222' 
ADCP,ioos:station:wmo:42887:1,2013-12-02T03:00:00Z,28.1910,-88.4960,48.2,1.3,96.0,99.0,'11111222,11111222,11144222' 
ADCP,ioos:station:wmo:42887:1,2013-12-02T03:20:00Z,28.1910,-88.4960,48.2,0.5,81.0,99.0,'11111222,11111222,11144222' 
ADCP,ioos:station:wmo:42887:1,2013-12-02T03:40:00Z,28.1910,-88.4960,48.2,0.1,103.0,99.0,'11111222,11111222,11144222' 
ADCP,ioos:station:wmo:42887:1,2013-12-02T04:00:00Z,28.1910,-88.4960,48.2,0.1,125.0,99.0,'11111222,11111222,11144222' 
ADCP,ioos:station:wmo:42887:1,2013-12-02T04:20:00Z,28.1910,-88.4960,48.2,0.4,244.0,99.0,'11111222,11111222,11144222' 
ADCP,ioos:station:wmo:42887:1,2013-12-02T04:40:00Z,28.1910,-88.4960,48.2,1.0,258.0,99.0,'11111222,11111222,11144222' 
ADCP,ioos:station:wmo:42887:1,2013-12-02T05:00:00Z,28.1910,-88.4960,48.2,0.3,263.0,99.0,'11111222,11111222,11144222' 
ADCP,ioos:station:wmo:42887:1,2013-12-02T05:20:00Z,28.1910,-88.4960,48.2,1.0,277.0,99.0,'11111222,11111222,11144222' 
ADCP,ioos:station:wmo:42887:1,2013-12-02T05:40:00Z,28.1910,-88.4960,48.2,1.7,260.0,99.0,'11111222,11111222,11144222' 
ADCP,ioos:station:wmo:42887:1,2013-12-02T06:00:00Z,28.1910,-88.4960,48.2,1.6,273.0,99.0,'11111222,11111222,11144222' 
ADCP,ioos:station:wmo:42887:1,2013-12-02T06:20:00Z,28.1910,-88.4960,48.2,3.2,251.0,99.0,'11111222,11111222,11144222' 
ADCP,ioos:station:wmo:42887:1,2013-12-02T06:40:00Z,28.1910,-88.4960,48.2,2.9,250.0,99.0,'11111222,11111222,11144222' 
ADCP,ioos:station:wmo:42887:1,2013-12-02T07:00:00Z,28.1910,-88.4960,48.2,1.9,258.0,99.0,'11111222,11111222,11144222' 
ADCP,ioos:station:wmo:42887:1,2013-12-02T07:20:00Z,28.1910,-88.4960,48.2,3.4,254.0,99.0,'11111222,11111222,11144222' 
ADCP,ioos:station:wmo:42887:1,2013-12-02T07:40:00Z,28.1910,-88.4960,48.2,2.9,266.0,99.0,'11111222,11111222,11144222' 
ADCP,ioos:station:wmo:42887:1,2013-12-02T08:00:00Z,28.1910,-88.4960,48.2,2.4,264.0,99.0,'11111222,11111222,11144222' 
ADCP,ioos:station:wmo:42887:1,2013-12-02T08:20:00Z,28.1910,-88.4960,48.2,3.6,275.0,99.0,'11111222,11111222,11144222' 
ADCP,ioos:station:wmo:42887:1,2013-12-02T08:40:00Z,28.1910,-88.4960,48.2,2.6,301.0,99.0,'11111222,11111222,11144222' 
ADCP,ioos:station:wmo:42887:1,2013-12-02T09:00:00Z,28.1910,-88.4960,48.2,3.3,296.0,99.0,'11111222,11111222,11144222' 
ADCP,ioos:station:wmo:42887:1,2013-12-02T09:20:00Z,28.1910,-88.4960,48.2,5.3,279.0,99.0,'11111222,11111222,11144222' 
ADCP,ioos:station:wmo:42887:1,2013-12-02T09:40:00Z,28.1910,-88.4960,48.2,4.2,302.0,99.0,'11111222,11111222,11144222' 
ADCP,ioos:station:wmo:42887:1,2013-12-02T10:00:00Z,28.1910,-88.4960,48.2,3.7,280.0,99.0,'11111222,11111222,11144222' 
ADCP,ioos:station:wmo:42887:1,2013-12-02T10:20:00Z,28.1910,-88.4960,48.2,2.6,270.0,99.0,'11111222,11111222,11144222' 
ADCP,ioos:station:wmo:42887:1,2013-12-02T10:40:00Z,28.1910,-88.4960,48.2,1.5,240.0,99.0,'11111222,11111222,11144222' 
ADCP,ioos:station:wmo:42887:1,2013-12-02T11:00:00Z,28.1910,-88.4960,48.2,2.5,242.0,99.0,'11111222,11111222,11144222' 
ADCP,ioos:station:wmo:42887:1,2013-12-02T11:20:00Z,28.1910,-88.4960,48.2,3.5,246.0,99.0,'11111222,11111222,11144222' 
ADCP,ioos:station:wmo:42887:1,2013-12-02T11:40:00Z,28.1910,-88.4960,48.2,2.9,252.0,99.0,'11111222,11111222,11144222' 
ADCP,ioos:station:wmo:42887:1,2013-12-02T12:00:00Z,28.1910,-88.4960,48.2,4.0,255.0,99.0,'11111222,11111222,11144222' 
ADCP,ioos:station:wmo:42887:1,2013-12-02T12:20:00Z,28.1910,-88.4960,48.2,3.6,256.0,99.0,'11111222,11111222,11144222' 
ADCP,ioos:station:wmo:42887:1,2013-12-02T12:40:00Z,28.1910,-88.4960,48.2,4.1,259.0,99.0,'11111222,11111222,11144222' 
ADCP,ioos:station:wmo:42887:1,2013-12-02T13:00:00Z,28.1910,-88.4960,48.2,2.7,258.0,99.0,'11111222,11111222,11144222' 
ADCP,ioos:station:wmo:42887:1,2013-12-02T13:20:00Z,28.1910,-88.4960,48.2,3.5,268.0,99.0,'11111222,11111222,11144222' 
ADCP,ioos:station:wmo:42887:1,2013-12-02T13:40:00Z,28.1910,-88.4960,48.2,3.7,257.0,99.0,'11111222,11111222,11144222' 
ADCP,ioos:station:wmo:42887:1,2013-12-02T14:00:00Z,28.1910,-88.4960,48.2,3.5,256.0,99.0,'11111222,11111222,11144222' 
ADCP,ioos:station:wmo:42887:1,2013-12-02T14:20:00Z,28.1910,-88.4960,48.2,2.6,255.0,99.0,'11111222,11111222,11144222' 
ADCP,ioos:station:wmo:42887:1,2013-12-02T14:40:00Z,28.1910,-88.4960,48.2,2.9,258.0,99.0,'11111222,11111222,11144222' 
ADCP,ioos:station:wmo:42887:1,2013-12-02T15:00:00Z,28.1910,-88.4960,48.2,3.6,258.0,99.0,'11111222,11111222,11144222' 
ADCP,ioos:station:wmo:42887:1,2013-12-02T15:20:00Z,28.1910,-88.4960,48.2,3.1,258.0,99.0,'11111222,11111222,11144222' 
ADCP,ioos:station:wmo:42887:1,2013-12-02T15:40:00Z,28.1910,-88.4960,48.2,2.8,257.0,99.0,'11111222,11111222,11144222' 
ADCP,ioos:station:wmo:42887:1,2013-12-02T16:00:00Z,28.1910,-88.4960,48.2,3.7,254.0,99.0,'11111222,11111222,11144222' 
ADCP,ioos:station:wmo:42887:1,2013-12-02T16:20:00Z,28.1910,-88.4960,48.2,3.5,255.0,99.0,'11111222,11111222,11144222' 
ADCP,ioos:station:wmo:42887:1,2013-12-02T16:40:00Z,28.1910,-88.4960,48.2,2.6,252.0,99.0,'11111222,11111222,11144222' 
ADCP,ioos:station:wmo:42887:1,2013-12-02T17:00:00Z,28.1910,-88.4960,48.2,1.8,246.0,99.0,'11111222,11111222,11144222' 
ADCP,ioos:station:wmo:42887:1,2013-12-02T17:20:00Z,28.1910,-88.4960,48.2,2.8,246.0,99.0,'11111222,11111222,11144222' 
ADCP,ioos:station:wmo:42887:1,2013-12-02T17:40:00Z,28.1910,-88.4960,48.2,3.2,246.0,99.0,'11111222,11111222,11144222' 
ADCP,ioos:station:wmo:42887:1,2013-12-02T18:00:00Z,28.1910,-88.4960,48.2,1.8,249.0,99.0,'11111222,11111222,11144222' 
ADCP,ioos:station:wmo:42887:1,2013-12-02T18:20:00Z,28.1910,-88.4960,48.2,3.7,241.0,99.0,'11111222,11111222,11144222' 
ADCP,ioos:station:wmo:42887:1,2013-12-02T18:40:00Z,28.1910,-88.4960,48.2,2.5,253.0,99.0,'11111222,11111222,11144222' 
ADCP,ioos:station:wmo:42887:1,2013-12-02T19:00:00Z,28.1910,-88.4960,48.2,3.0,260.0,99.0,'11111222,11111222,11144222' 
ADCP,ioos:station:wmo:42887:1,2013-12-02T19:20:00Z,28.1910,-88.4960,48.2,3.4,261.0,99.0,'11111222,11111222,11144222' 
ADCP,ioos:station:wmo:42887:1,2013-12-02T19:40:00Z,28.1910,-88.4960,48.2,3.7,260.0,99.0,'11111222,11111222,11144222' 
ADCP,ioos:station:wmo:42887:1,2013-12-02T20:00:00Z,28.1910,-88.4960,48.2,3.7,261.0,99.0,'11111222,11111222,11144222' 
ADCP,ioos:station:wmo:42887:1,2013-12-02T20:20:00Z,28.1910,-88.4960,48.2,3.6,260.0,99.0,'11111222,11111222,11144222' 
ADCP,ioos:station:wmo:42887:1,2013-12-02T20:40:00Z,28.1910,-88.4960,48.2,2.6,260.0,99.0,'11111222,11111222,11144222' 
ADCP,ioos:station:wmo:42887:1,2013-12-02T21:00:00Z,28.1910,-88.4960,48.2,2.8,260.0,99.0,'11111222,11111222,11144222' 
ADCP,ioos:station:wmo:42887:1,2013-12-02T21:20:00Z,28.1910,-88.4960,48.2,3.5,260.0,99.0,'11111222,11111222,11144222' 
ADCP,ioos:station:wmo:42887:1,2013-12-02T21:40:00Z,28.1910,-88.4960,48.2,2.8,260.0,99.0,'11111222,11111222,11144222' 
ADCP,ioos:station:wmo:42887:1,2013-12-02T22:00:00Z,28.1910,-88.4960,48.2,2.7,260.0,99.0,'11111222,11111222,11144222' 
ADCP,ioos:station:wmo:42887:1,2013-12-02T22:20:00Z,28.1910,-88.4960,48.2,2.2,248.0,99.0,'11111222,11111222,11144222' 
ADCP,ioos:station:wmo:42887:1,2013-12-02T22:40:00Z,28.1910,-88.4960,48.2,1.8,250.0,99.0,'11111222,11111222,11144222' 
ADCP,ioos:station:wmo:42887:1,2013-12-02T23:00:00Z,28.1910,-88.4960,48.2,2.3,248.0,99.0,'11111222,11111222,11144222' 
ADCP,ioos:station:wmo:42887:1,2013-12-02T23:20:00Z,28.1910,-88.4960,48.2,3.0,248.0,99.0,'11111222,11111222,11144222' 
ADCP,ioos:station:wmo:42887:1,2013-12-02T23:40:00Z,28.1910,-88.4960,48.2,1.5,249.0,99.0,'11111222,11111222,11144222' 
ADCP,ioos:station:wmo:42887:1,2013-12-03T00:00:00Z,28.1910,-88.4960,48.2,1.3,248.0,99.0,'11111222,11111222,11144222' 
ADCP,ioos:station:wmo:42887:1,2013-12-03T00:20:00Z,28.1910,-88.4960,48.2,2.1,248.0,99.0,'11111222,11111222,11144222' 
ADCP,ioos:station:wmo:42887:1,2013-12-03T00:40:00Z,28.1910,-88.4960,48.2,2.1,249.0,99.0,'11111222,11111222,11144222' 
ADCP,ioos:station:wmo:42887:1,2013-12-03T01:00:00Z,28.1910,-88.4960,48.2,1.2,248.0,99.0,'11111222,11111222,11144222' 
ADCP,ioos:station:wmo:42887:1,2013-12-03T01:20:00Z,28.1910,-88.4960,48.2,1.7,247.0,99.0,'11111222,11111222,11144222' 
ADCP,ioos:station:wmo:42887:1,2013-12-03T01:40:00Z,28.1910,-88.4960,48.2,1.4,248.0,99.0,'11111222,11111222,11144222' 
ADCP,ioos:station:wmo:42887:1,2013-12-03T02:00:00Z,28.1910,-88.4960,48.2,1.4,248.0,99.0,'11111222,11111222,11144222' 
ADCP,ioos:station:wmo:42887:1,2013-12-03T02:20:00Z,28.1910,-88.4960,48.2,0.6,248.0,99.0,'11111222,11111222,11144222' 
ADCP,ioos:station:wmo:42887:1,2013-12-03T02:40:00Z,28.1910,-88.4960,48.2,1.4,248.0,99.0,'11111222,11111222,11144222' 
ADCP,ioos:station:wmo:42887:1,2013-12-03T03:00:00Z,28.1910,-88.4960,48.2,0.6,248.0,99.0,'11111222,11111222,11144222' 
ADCP,ioos:station:wmo:42887:1,2013-12-03T03:20:00Z,28.1910,-88.4960,48.2,3.1,186.0,99.0,'11111222,11111222,11144222' 
ADCP,ioos:station:wmo:42887:1,2013-12-03T03:40:00Z,28.1910,-88.4960,48.2,3.8,178.0,99.0,'11111222,11111222,11144222' 
ADCP,ioos:station:wmo:42887:1,2013-12-03T04:00:00Z,28.1910,-88.4960,48.2,4.2,178.0,99.0,'11111222,11111222,11144222' 
ADCP,ioos:station:wmo:42887:1,2013-12-03T04:20:00Z,28.1910,-88.4960,48.2,2.5,194.0,99.0,'11111222,11111222,11144222' 
ADCP,ioos:station:wmo:42887:1,2013-12-03T04:40:00Z,28.1910,-88.4960,48.2,2.7,188.0,99.0,'11111222,11111222,11144222' 
ADCP,ioos:station:wmo:42887:1,2013-12-03T05:00:00Z,28.1910,-88.4960,48.2,4.6,197.0,99.0,'11111222,11111222,11144222' 
ADCP,ioos:station:wmo:42887:1,2013-12-03T05:20:00Z,28.1910,-88.4960,48.2,4.7,199.0,99.0,'11111222,11111222,11144222' 
ADCP,ioos:station:wmo:42887:1,2013-12-03T05:40:00Z,28.1910,-88.4960,48.2,4.9,204.0,99.0,'11111222,11111222,11144222' 
ADCP,ioos:station:wmo:42887:1,2013-12-03T06:00:00Z,28.1910,-88.4960,48.2,5.1,198.0,99.0,'11111222,11111222,11144222' 
ADCP,ioos:station:wmo:42887:1,2013-12-03T06:20:00Z,28.1910,-88.4960,48.2,6.2,199.0,99.0,'11111222,11111222,11144222' 
ADCP,ioos:station:wmo:42887:1,2013-12-03T06:40:00Z,28.1910,-88.4960,48.2,6.9,198.0,99.0,'11111222,11111222,11144222' 
ADCP,ioos:station:wmo:42887:1,2013-12-03T07:00:00Z,28.1910,-88.4960,48.2,5.4,203.0,99.0,'11111222,11111222,11144222' 
ADCP,ioos:station:wmo:42887:1,2013-12-03T07:20:00Z,28.1910,-88.4960,48.2,6.4,201.0,99.0,'11111222,11111222,11144222' 
ADCP,ioos:station:wmo:42887:1,2013-12-03T07:40:00Z,28.1910,-88.4960,48.2,6.9,200.0,99.0,'11111222,11111222,11144222' 
ADCP,ioos:station:wmo:42887:1,2013-12-03T08:00:00Z,28.1910,-88.4960,48.2,7.6,196.0,99.0,'11111222,11111222,11144222' 
ADCP,ioos:station:wmo:42887:1,2013-12-03T08:20:00Z,28.1910,-88.4960,48.2,7.7,197.0,99.0,'11111222,11111222,11144222' 
ADCP,ioos:station:wmo:42887:1,2013-12-03T08:40:00Z,28.1910,-88.4960,48.2,7.4,209.0,99.0,'11111222,11111222,11144222' 
ADCP,ioos:station:wmo:42887:1,2013-12-03T09:00:00Z,28.1910,-88.4960,48.2,6.6,221.0,99.0,'11111222,11111222,11144222' 
ADCP,ioos:station:wmo:42887:1,2013-12-03T09:20:00Z,28.1910,-88.4960,48.2,6.7,201.0,99.0,'11111222,11111222,11144222' 
ADCP,ioos:station:wmo:42887:1,2013-12-03T09:40:00Z,28.1910,-88.4960,48.2,6.6,218.0,99.0,'11111222,11111222,11144222' 
ADCP,ioos:station:wmo:42887:1,2013-12-03T10:00:00Z,28.1910,-88.4960,48.2,5.3,234.0,99.0,'11111222,11111222,11144222' 
ADCP,ioos:station:wmo:42887:1,2013-12-03T10:20:00Z,28.1910,-88.4960,48.2,4.8,247.0,99.0,'11111222,11111222,11144222' 
ADCP,ioos:station:wmo:42887:1,2013-12-03T10:40:00Z,28.1910,-88.4960,48.2,5.6,203.0,99.0,'11111222,11111222,11144222' 
ADCP,ioos:station:wmo:42887:1,2013-12-03T11:00:00Z,28.1910,-88.4960,48.2,6.7,200.0,99.0,'11111222,11111222,11144222' 
ADCP,ioos:station:wmo:42887:1,2013-12-03T11:20:00Z,28.1910,-88.4960,48.2,5.2,197.0,99.0,'11111222,11111222,11144222' 
ADCP,ioos:station:wmo:42887:1,2013-12-03T11:40:00Z,28.1910,-88.4960,48.2,4.5,209.0,99.0,'11111222,11111222,11144222' 
ADCP,ioos:station:wmo:42887:1,2013-12-03T12:00:00Z,28.1910,-88.4960,48.2,6.4,198.0,99.0,'11111222,11111222,11144222' 
ADCP,ioos:station:wmo:42887:1,2013-12-03T12:20:00Z,28.1910,-88.4960,48.2,6.1,206.0,99.0,'11111222,11111222,11144222' 
ADCP,ioos:station:wmo:42887:1,2013-12-03T12:40:00Z,28.1910,-88.4960,48.2,3.8,225.0,99.0,'11111222,11111222,11144222' 
ADCP,ioos:station:wmo:42887:1,2013-12-03T13:00:00Z,28.1910,-88.4960,48.2,7.3,221.0,99.0,'11111222,11111222,11144222' 
ADCP,ioos:station:wmo:42887:1,2013-12-03T13:20:00Z,28.1910,-88.4960,48.2,6.5,196.0,99.0,'11111222,11111222,11144222' 
ADCP,ioos:station:wmo:42887:1,2013-12-03T13:40:00Z,28.1910,-88.4960,48.2,6.9,199.0,99.0,'11111222,11111222,11144222' 
ADCP,ioos:station:wmo:42887:1,2013-12-03T14:00:00Z,28.1910,-88.4960,48.2,8.0,208.0,99.0,'11111222,11111222,11144222' 
ADCP,ioos:station:wmo:42887:1,2013-12-03T14:20:00Z,28.1910,-88.4960,48.2,7.2,200.0,99.0,'11111222,11111222,11144222' 
ADCP,ioos:station:wmo:42887:1,2013-12-03T14:40:00Z,28.1910,-88.4960,48.2,7.9,200.0,99.0,'11111222,11111222,11144222' 
ADCP,ioos:station:wmo:42887:1,2013-12-03T15:00:00Z,28.1910,-88.4960,48.2,7.9,203.0,99.0,'11111222,11111222,11144222' 
ADCP,ioos:station:wmo:42887:1,2013-12-03T15:20:00Z,28.1910,-88.4960,48.2,7.4,196.0,99.0,'11111222,11111222,11144222' 
ADCP,ioos:station:wmo:42887:1,2013-12-03T15:40:00Z,28.1910,-88.4960,48.2,9.0,193.0,99.0,'11111222,11111222,11144222' 
ADCP,ioos:station:wmo:42887:1,2013-12-03T16:00:00Z,28.1910,-88.4960,48.2,8.4,200.0,99.0,'11111222,11111222,11144222' 
ADCP,ioos:station:wmo:42887:1,2013-12-03T16:20:00Z,28.1910,-88.4960,48.2,8.0,196.0,99.0,'11111222,11111222,11144222' 
ADCP,ioos:station:wmo:42887:1,2013-12-03T16:40:00Z,28.1910,-88.4960,48.2,7.8,196.0,99.0,'11111222,11111222,11144222' 
ADCP,ioos:station:wmo:42887:1,2013-12-03T17:00:00Z,28.1910,-88.4960,48.2,6.6,195.0,99.0,'11111222,11111222,11144222' 
ADCP,ioos:station:wmo:42887:1,2013-12-03T17:20:00Z,28.1910,-88.4960,48.2,7.3,189.0,99.0,'11111222,11111222,11144222' 
ADCP,ioos:station:wmo:42887:1,2013-12-03T17:40:00Z,28.1910,-88.4960,48.2,6.5,189.0,99.0,'11111222,11111222,11144222' 
ADCP,ioos:station:wmo:42887:1,2013-12-03T18:00:00Z,28.1910,-88.4960,48.2,7.1,181.0,99.0,'11111222,11111222,11144222' 
ADCP,ioos:station:wmo:42887:1,2013-12-03T18:20:00Z,28.1910,-88.4960,48.2,8.3,193.0,99.0,'11111222,11111222,11144222' 
ADCP,ioos:station:wmo:42887:1,2013-12-03T18:40:00Z,28.1910,-88.4960,48.2,9.3,195.0,99.0,'11111222,11111222,11144222' 
ADCP,ioos:station:wmo:42887:1,2013-12-03T19:00:00Z,28.1910,-88.4960,48.2,9.2,195.0,99.0,'11111222,11111222,11144222' 
ADCP,ioos:station:wmo:42887:1,2013-12-03T19:20:00Z,28.1910,-88.4960,48.2,7.7,196.0,99.0,'11111222,11111222,11144222' 